Theta_e
324 323 322 321 321 321 318 314 312 306 300 301 301 300 301 301 301 301 301 301 301 301 303 306 308 312 315 315 314 312 310 310 311 310 308 308 306 303 305 308 309 308 308 308 308 310 311 311 311 311 311 312 312 312 312 312 312 312 313 312 312 313 312 312 310 310 309 309 309 309 309 310 310 311 310 311 311 311 313 313 314 315 315 315 313
324 324 323 323 322 321 319 315 313 307 301 300 301 300 301 301 301 301 301 301 301 301 302 306 310 313 314 314 312 310 310 310 310 310 307 306 304 302 306 308 308 308 308 308 309 310 311 311 311 311 311 311 312 312 312 312 312 311 312 313 313 313 313 312 310 310 309 308 308 309 309 310 310 311 310 310 311 312 313 314 315 317 318 317 316
325 325 324 324 322 321 319 317 314 307 301 300 301 300 300 301 301 301 300 300 301 301 303 307 310 312 312 312 310 309 309 309 309 308 305 303 303 305 308 308 307 308 308 307 307 309 310 311 311 311 311 311 312 312 312 312 311 311 312 313 313 313 313 312 310 310 309 307 308 308 309 310 310 310 310 310 311 312 313 314 315 316 317 317 317
325 325 324 323 322 321 320 319 316 306 301 301 301 301 300 301 301 300 300 300 301 301 303 307 310 309 309 310 309 307 307 308 308 306 302 302 305 307 308 307 308 308 307 307 307 308 310 311 311 311 311 311 312 312 312 312 311 311 312 313 313 313 313 312 310 310 309 307 308 308 309 310 310 310 310 310 310 312 312 313 314 315 316 316 316
325 325 324 323 322 322 320 320 316 306 301 302 302 301 300 300 301 300 300 300 301 301 302 305 307 307 307 307 306 306 306 307 307 305 303 303 306 307 308 308 308 307 306 307 308 309 310 311 311 311 311 311 311 312 312 312 311 311 312 313 313 313 313 313 311 310 308 307 308 308 309 309 310 311 311 310 310 311 311 311 313 313 314 315 315
326 325 324 323 323 323 321 321 316 305 302 304 303 302 300 300 300 300 300 300 300 301 302 303 304 304 304 305 305 305 305 306 307 306 304 304 306 307 307 307 307 306 306 307 308 310 310 311 311 311 311 311 311 311 311 311 311 312 313 314 314 313 313 312 310 309 308 308 308 309 309 310 311 311 311 310 310 310 309 309 310 311 313 315 314
325 324 324 324 324 323 321 321 315 305 304 306 304 302 300 300 300 300 300 300 300 300 301 302 302 302 303 304 304 304 304 307 307 307 305 304 306 307 307 307 307 306 306 307 308 310 311 311 311 311 310 311 311 311 311 311 311 313 313 314 314 313 312 312 310 309 309 309 310 311 311 311 311 311 310 310 310 310 309 308 308 309 311 312 313
325 325 325 325 325 323 323 321 312 304 308 309 305 302 300 300 300 300 300 300 300 300 301 301 301 301 302 303 302 303 305 307 307 307 305 304 306 307 308 308 307 307 308 307 308 309 311 312 311 310 310 310 311 310 310 310 312 313 314 314 314 313 313 312 310 309 309 310 311 312 312 312 311 310 310 309 309 309 308 308 307 308 308 308 309
326 325 326 326 325 324 323 319 310 306 310 310 306 303 300 300 300 300 300 300 300 300 300 300 301 301 301 301 302 304 305 306 306 306 305 304 306 307 308 308 308 308 308 308 308 309 311 312 311 310 310 310 310 310 310 309 310 312 313 313 313 313 314 313 311 311 311 311 312 312 312 311 309 309 309 309 309 308 308 308 307 307 306 305 306
326 326 326 325 324 323 322 317 309 307 310 308 305 303 300 300 300 300 300 300 299 299 299 299 300 300 300 301 304 306 306 306 306 305 304 304 306 307 308 308 308 307 307 308 309 309 311 312 311 310 310 310 310 310 310 309 308 309 312 313 312 312 313 312 312 312 312 312 313 313 312 311 310 309 309 309 308 308 307 307 307 307 306 304 304
327 326 326 325 324 323 321 315 309 308 309 309 306 303 300 300 300 300 300 299 299 299 299 299 299 299 300 301 305 306 307 306 305 305 304 304 306 308 308 308 307 307 307 308 309 310 311 312 311 310 309 309 309 309 310 308 306 306 310 312 312 311 312 312 311 311 312 312 312 313 312 311 310 309 309 309 308 307 307 307 306 305 305 304 303
327 326 326 325 324 323 320 314 310 309 309 310 309 303 300 300 300 300 300 299 299 299 298 299 299 300 300 301 305 306 307 306 304 305 305 304 306 308 308 307 307 306 306 308 309 310 312 312 311 310 309 309 309 308 309 307 305 306 309 311 311 311 311 312 311 311 312 312 312 312 311 310 309 308 308 308 308 308 307 307 305 305 305 304 304
328 327 326 325 324 323 320 315 312 310 309 311 310 303 300 300 300 300 300 299 299 299 298 298 299 300 300 301 304 306 306 305 304 305 305 303 306 308 307 307 307 306 306 308 309 310 312 312 312 311 309 309 308 307 308 307 305 306 308 309 310 310 311 312 312 311 312 312 311 311 311 309 308 308 308 308 308 309 308 306 305 305 304 305 305
327 327 326 325 325 323 320 317 314 310 309 311 309 302 300 301 300 299 300 299 299 299 298 298 298 300 299 300 303 304 304 304 305 305 304 303 306 307 307 307 307 306 305 306 307 309 311 312 311 311 309 308 307 306 307 306 304 305 306 308 308 309 309 310 311 311 311 311 311 310 309 308 308 308 308 307 308 308 307 306 305 305 305 305 305
327 327 326 326 325 323 321 320 315 310 310 310 306 301 300 300 300 300 300 300 299 299 298 298 298 299 298 299 301 303 302 303 304 303 302 304 307 307 307 307 307 306 305 305 306 309 312 312 311 311 309 307 306 305 305 304 304 305 306 306 307 306 307 307 308 309 310 310 309 309 308 307 307 307 307 308 308 308 307 306 305 305 305 306 306
327 327 326 326 325 324 323 321 315 311 311 308 302 300 300 300 300 300 300 301 299 299 298 298 297 298 298 298 300 302 301 301 303 302 303 306 307 307 307 307 307 306 305 304 305 309 312 311 311 311 309 307 305 305 304 304 305 306 306 306 306 306 306 306 306 307 308 308 307 307 306 306 306 306 307 307 307 307 307 307 307 306 306 306 306
327 327 326 326 325 324 324 321 314 312 312 306 301 300 300 300 300 299 300 300 299 298 298 298 297 297 297 297 299 301 301 301 302 301 303 307 306 306 307 307 307 306 306 304 304 309 312 311 311 311 309 306 305 305 304 304 306 306 306 306 306 306 306 306 306 306 306 306 306 306 306 306 306 305 306 306 306 306 306 307 307 307 307 306 306
327 327 326 326 325 325 324 320 316 314 310 304 301 300 299 299 299 299 299 299 298 298 298 298 298 297 297 297 298 300 301 302 301 300 303 306 306 306 306 306 306 306 306 304 304 309 312 310 311 311 309 306 305 305 304 305 307 307 307 307 307 307 307 307 307 307 306 306 305 305 305 305 306 306 306 306 306 306 306 307 307 307 307 307 307
326 326 326 326 326 325 324 320 317 316 310 302 300 300 299 299 300 300 300 299 298 298 298 298 298 297 297 297 298 299 301 301 300 301 304 305 305 306 306 306 306 306 305 303 303 310 312 310 310 311 309 306 305 305 305 307 308 308 308 308 308 309 309 309 309 308 307 306 305 305 305 304 305 305 306 306 306 307 307 307 307 307 307 307 307
327 327 326 326 326 325 324 320 317 316 310 303 301 301 301 301 302 303 302 299 298 298 298 298 298 297 297 297 297 299 301 301 301 302 304 305 305 306 306 305 306 306 304 302 303 309 312 310 310 310 309 307 306 306 306 307 308 308 308 309 309 310 310 310 311 310 309 308 306 305 305 305 305 305 306 306 306 307 307 307 307 308 308 308 308
327 327 326 326 326 325 324 320 318 317 312 306 305 305 305 303 304 305 304 301 299 298 298 298 298 297 296 297 298 299 300 300 300 302 304 305 305 306 305 305 305 306 304 302 303 309 312 310 309 309 309 307 306 306 307 308 308 308 308 309 309 309 310 310 311 311 311 310 309 307 306 305 305 305 306 306 306 306 307 308 309 309 309 310 310
327 327 327 326 326 325 323 321 319 318 313 309 308 307 306 305 305 305 304 303 300 299 298 298 298 297 296 297 298 299 300 299 298 300 303 305 305 305 305 305 305 305 305 302 302 307 311 310 309 309 309 308 307 307 307 308 308 308 308 309 309 309 310 310 311 311 310 310 310 310 309 308 308 307 308 309 309 310 310 311 311 311 311 311 311
327 327 327 326 327 326 324 322 320 317 314 311 309 308 307 307 306 305 303 303 301 299 298 298 298 297 297 297 297 299 300 299 297 298 302 304 305 305 305 305 305 305 304 302 302 306 310 310 309 308 308 308 307 307 307 308 308 309 308 308 309 309 309 310 311 311 309 307 307 309 311 312 312 311 312 312 313 313 313 312 312 312 312 312 312
328 327 327 327 327 326 323 321 320 318 314 312 310 309 308 307 306 305 303 302 300 299 299 298 298 297 297 297 297 298 299 298 297 297 301 304 305 305 305 305 305 305 304 302 302 305 309 311 310 309 308 308 307 307 307 308 308 309 308 309 309 309 310 310 310 310 308 305 304 305 307 310 312 313 313 313 313 313 313 313 312 312 312 313 313
328 327 327 327 326 325 323 321 320 318 315 312 311 310 309 308 305 304 303 301 300 299 298 298 298 297 297 297 297 297 297 297 296 297 300 303 305 304 305 304 304 305 304 302 302 304 308 310 310 310 309 308 308 307 307 308 308 308 308 309 309 309 310 310 310 310 307 304 303 302 303 305 308 309 309 310 311 312 312 312 311 311 312 313 313
327 327 327 327 326 325 324 321 320 318 316 313 311 310 310 308 305 304 302 300 299 299 298 298 298 297 297 297 297 297 297 296 296 296 298 301 304 304 304 304 304 304 304 302 302 303 306 309 310 310 310 309 308 308 308 308 308 308 309 309 309 309 310 311 310 309 307 304 303 302 302 302 303 303 304 304 305 307 308 308 308 309 310 312 313
328 328 327 326 326 325 323 321 320 318 316 313 312 312 310 307 304 303 301 299 299 298 298 298 297 297 297 297 297 297 297 296 296 296 296 299 302 304 304 303 303 304 304 303 302 302 304 307 309 310 310 310 309 309 308 308 308 309 309 309 309 310 310 311 310 309 307 304 303 303 303 303 303 303 304 303 303 303 303 303 303 304 306 310 311
327 328 327 326 326 324 323 321 320 318 316 314 313 313 310 305 303 302 300 299 298 298 298 297 297 297 297 297 297 298 297 296 296 296 296 297 300 302 303 302 302 304 304 303 302 302 304 306 308 309 309 310 310 310 310 310 309 310 310 310 311 311 311 311 310 309 307 305 304 305 305 306 306 306 306 306 306 306 305 304 303 302 302 304 307
327 328 327 327 326 325 323 321 319 318 316 315 315 313 310 307 304 301 300 299 298 298 298 297 297 297 297 297 297 297 297 296 296 296 296 296 297 299 300 300 302 304 304 304 303 302 303 305 306 307 308 308 309 309 309 310 310 311 311 311 311 312 311 311 310 309 308 307 306 306 307 307 307 308 308 308 308 308 307 307 306 304 302 301 302
328 328 327 327 326 325 323 321 319 318 316 316 316 314 311 309 305 301 299 299 299 298 298 297 297 297 297 296 297 297 297 296 296 296 296 296 297 298 299 300 302 304 304 304 303 303 303 304 305 306 306 306 307 307 307 308 309 310 310 311 311 312 312 311 309 308 308 309 309 310 309 309 308 308 308 308 309 309 309 308 307 307 305 303 302
328 328 328 327 326 325 323 321 319 318 317 317 317 314 312 310 306 302 300 300 300 299 298 298 297 297 297 296 296 296 296 296 296 296 296 296 297 297 298 300 301 303 303 304 304 303 303 303 304 305 305 305 306 306 306 306 307 308 309 310 311 311 311 311 309 308 308 309 310 311 311 311 310 309 308 309 309 310 309 309 308 307 306 305 305
329 328 329 328 327 326 323 321 320 318 318 317 317 315 313 310 307 302 300 300 301 300 298 298 299 297 296 296 296 296 296 295 295 296 295 295 296 296 297 298 299 301 302 303 304 304 303 303 303 303 304 304 305 305 305 305 305 306 307 308 310 311 311 310 309 309 309 309 310 310 311 311 311 309 308 309 309 309 309 308 308 308 307 306 306
329 329 329 329 329 327 324 322 320 319 318 318 317 316 314 312 308 304 301 301 302 301 300 299 299 297 297 296 296 296 296 295 295 296 296 295 295 295 296 296 298 299 300 301 302 303 304 303 303 303 303 304 304 304 304 304 304 305 306 307 308 309 310 310 309 309 309 310 310 310 310 310 310 308 307 308 308 308 308 307 308 308 307 306 306
330 330 330 330 330 328 325 323 321 319 319 318 317 316 314 312 309 304 302 303 302 301 300 300 298 297 297 297 296 296 296 295 295 296 295 295 294 295 295 296 297 297 298 299 300 302 303 303 303 303 303 303 304 304 303 303 303 304 305 305 306 307 309 309 309 310 310 310 310 310 309 310 308 306 305 307 308 308 307 306 306 307 307 307 306
330 330 331 330 330 328 325 322 320 319 319 318 317 315 313 313 310 305 303 303 302 301 301 300 298 297 297 297 296 296 296 295 295 295 295 295 294 294 295 295 296 296 297 298 299 300 301 302 303 303 303 303 304 304 303 303 303 303 304 305 306 306 307 308 308 309 310 310 310 310 309 309 308 305 304 305 307 307 306 306 306 306 307 306 306
331 331 331 331 331 329 326 323 321 319 319 318 317 315 314 313 310 305 303 303 302 301 301 299 298 297 297 297 296 296 296 295 295 295 296 296 296 295 295 294 295 296 297 297 298 299 300 301 302 303 303 303 303 303 303 303 303 303 303 304 305 305 306 306 307 307 308 309 309 309 309 309 308 306 305 304 305 305 305 305 305 305 305 305 306
331 331 331 331 331 330 327 324 321 319 319 318 317 316 314 313 309 305 303 303 301 301 301 300 298 297 297 297 296 296 296 295 295 296 297 298 297 297 296 294 294 295 296 297 297 298 299 300 301 302 303 303 303 303 303 303 303 302 303 303 304 304 305 305 305 306 307 307 308 308 308 309 309 308 306 305 305 305 304 304 304 304 304 304 305
330 331 331 331 330 329 327 324 321 320 319 318 318 316 314 313 309 305 303 302 301 301 301 300 298 297 297 297 296 296 296 295 295 296 298 298 298 297 296 294 294 294 295 296 296 297 298 299 300 301 302 303 303 303 303 303 302 302 302 303 303 303 304 304 304 304 305 306 306 307 307 308 308 308 307 307 307 306 305 304 304 304 304 303 303
331 332 332 331 330 328 326 324 321 320 319 318 318 317 315 313 309 304 302 301 301 301 301 299 298 298 297 297 296 296 296 295 295 296 297 298 298 297 296 294 293 293 293 294 295 296 297 298 300 301 301 302 302 303 303 303 302 302 302 302 303 303 303 303 303 303 304 304 304 305 305 305 305 305 306 306 306 305 305 304 304 304 304 303 303
331 332 332 331 330 328 326 324 322 321 320 319 318 317 315 313 308 303 301 301 301 301 300 299 299 298 297 297 296 296 296 295 295 295 295 296 296 295 294 293 293 293 293 293 294 295 296 298 299 300 300 301 302 302 302 302 302 302 302 302 302 303 303 302 303 303 303 303 303 303 303 303 303 303 303 304 304 304 304 304 305 304 304 303 303
330 331 331 331 330 328 327 325 323 322 321 320 318 317 315 313 307 302 301 301 302 301 299 299 299 298 297 297 296 296 296 295 295 295 294 294 295 294 294 293 293 293 292 292 293 293 294 296 297 299 299 300 300 301 301 301 301 302 302 302 302 303 302 302 302 303 303 303 303 303 303 302 302 303 303 303 303 303 304 304 304 304 303 303 303
330 331 330 330 329 327 326 325 323 322 322 320 319 317 315 311 305 301 302 302 302 301 300 299 299 298 297 297 296 296 295 295 295 294 294 295 296 296 295 295 294 293 292 292 292 292 293 294 296 297 298 298 299 300 300 300 300 300 300 301 301 301 301 301 301 301 302 302 302 302 302 302 302 303 302 302 303 303 303 303 303 303 303 303 303
331 331 330 330 329 327 326 325 323 322 322 321 319 317 314 309 303 302 303 303 302 302 300 299 298 298 297 296 296 296 295 295 294 294 295 296 297 297 297 296 295 294 293 292 292 292 292 293 293 295 296 297 298 298 298 299 299 299 299 299 299 300 300 300 300 300 300 301 301 301 302 302 302 302 302 302 302 302 302 302 302 303 303 303 302
331 330 330 330 329 327 325 325 324 323 322 320 319 317 313 307 304 303 303 303 303 302 301 299 299 297 297 296 296 295 295 295 294 295 295 296 297 297 297 297 296 295 294 293 292 292 292 292 292 293 294 296 297 297 297 297 297 297 297 297 298 298 298 299 299 299 300 300 300 301 301 301 302 302 302 302 302 302 302 302 302 302 302 303 303
330 330 330 329 329 328 326 325 324 322 322 320 318 316 311 306 304 304 303 303 303 302 301 300 298 297 297 296 296 295 295 294 295 295 296 296 297 297 297 297 296 295 294 293 292 292 292 292 292 292 293 294 295 296 296 296 296 296 296 296 296 297 297 297 298 298 298 299 299 299 300 300 301 301 302 302 302 302 302 302 302 302 302 303 303
330 330 329 328 328 328 326 325 323 322 321 320 317 314 311 306 304 304 303 304 303 302 302 300 298 297 296 296 296 295 295 295 295 296 297 297 297 297 297 296 296 295 294 294 292 292 292 292 292 292 292 292 293 294 294 295 295 295 295 295 295 295 295 296 296 296 297 297 297 298 298 299 300 300 301 302 302 301 302 302 302 302 302 303 303
330 330 329 328 328 327 327 326 324 323 321 318 315 313 310 307 305 304 303 304 304 303 302 300 298 297 296 296 296 296 296 295 296 297 298 298 297 297 296 296 295 294 294 293 292 292 292 292 292 292 292 291 292 292 292 293 294 294 294 294 294 294 294 294 294 294 295 295 296 296 296 297 298 299 300 301 301 301 301 302 302 302 302 302 302
330 330 329 329 328 328 327 326 325 323 319 316 315 313 310 307 305 303 303 304 303 303 302 300 298 297 296 296 296 296 296 296 296 297 298 298 297 297 295 294 294 293 293 293 292 292 292 292 292 292 291 291 291 291 291 292 292 292 292 292 292 292 292 292 292 292 293 293 294 294 294 295 296 297 298 299 300 301 301 301 301 302 301 302 302
330 330 330 329 328 328 327 326 325 322 317 315 315 313 311 308 305 303 303 303 303 303 301 299 298 297 297 296 296 296 296 296 297 297 297 297 296 296 294 293 293 293 293 292 292 292 292 292 291 291 291 292 292 291 291 291 291 291 291 291 291 291 291 291 291 291 291 291 292 292 293 293 294 294 295 296 297 298 300 300 301 301 301 301 301
330 330 329 329 329 328 327 326 324 319 316 316 315 314 312 309 306 304 303 302 302 302 300 299 298 297 297 297 297 296 296 297 297 297 296 295 295 294 293 293 293 293 293 292 292 292 292 291 291 291 292 292 292 292 291 291 291 291 291 291 291 291 291 291 290 290 290 291 291 291 291 291 291 292 292 293 293 295 296 297 299 300 301 301 301
330 330 329 328 328 327 327 326 323 318 316 317 316 315 314 311 308 305 303 302 302 301 300 299 298 298 297 297 297 296 296 296 297 297 295 294 294 294 293 293 293 293 293 292 292 292 292 291 291 292 292 292 292 291 291 291 291 291 291 291 291 291 290 290 290 290 291 291 291 291 291 291 291 291 291 291 291 291 292 293 295 297 299 300 300
Wind_Speed
8 6 4 3 4 6 9 12 15 13 9 9 10 10 9 9 9 10 11 10 11 10 8 6 7 8 8 10 12 12 13 13 14 16 16 15 14 16 17 16 17 19 21 22 21 19 19 20 22 24 26 29 30 30 29 29 28 28 30 31 29 28 25 26 28 27 26 22 18 17 16 16 18 19 21 22 24 25 25 23 20 13 8 6 6
10 8 6 4 3 4 8 11 14 14 10 10 11 11 10 9 10 11 12 11 12 11 8 7 9 9 8 9 10 10 11 12 13 15 16 15 15 16 16 15 18 20 21 21 20 20 20 20 22 24 26 28 28 28 27 28 28 28 30 31 29 26 25 25 27 26 25 22 20 19 17 18 20 21 24 26 24 24 22 19 14 11 9 8 9
12 10 7 4 2 4 7 10 15 14 10 10 12 12 11 10 11 11 12 12 12 10 8 8 8 7 7 7 8 9 10 10 12 14 15 15 15 16 16 16 18 20 21 21 21 20 20 20 21 24 27 28 28 27 27 29 29 29 30 31 29 26 24 22 23 24 22 19 18 18 17 18 20 23 26 26 25 25 23 20 19 20 16 10 11
14 11 8 4 2 3 6 9 14 14 9 9 12 12 12 11 11 12 13 12 10 10 8 7 6 6 6 7 7 8 9 10 12 16 17 16 16 16 16 18 19 20 22 23 22 20 19 19 21 24 26 26 26 27 28 30 29 29 29 28 28 27 25 21 21 22 19 16 16 14 14 17 18 20 24 26 27 27 28 27 28 30 27 22 25
15 13 9 5 3 3 5 8 13 13 9 9 12 13 13 12 12 13 13 11 9 9 8 6 5 5 6 7 8 9 11 14 16 19 19 16 16 17 17 19 20 22 23 24 23 21 19 19 21 24 25 24 25 26 28 29 28 27 27 27 26 25 23 21 20 20 16 13 15 12 10 11 13 16 16 21 29 32 34 34 34 35 36 35 37
15 13 10 7 5 4 5 7 11 11 8 10 12 13 13 12 12 12 12 11 9 8 8 7 7 7 8 10 12 13 15 16 18 20 19 16 15 17 18 20 22 23 24 25 24 22 20 19 21 23 24 23 24 25 27 28 28 28 28 28 26 21 20 20 19 17 13 12 15 14 9 8 12 14 12 14 25 32 37 39 40 41 40 40 41
16 13 10 8 7 5 5 7 10 9 8 11 12 12 12 11 11 11 11 11 9 8 7 8 8 9 9 11 14 15 15 15 16 18 17 14 14 18 19 20 21 23 24 25 25 24 20 20 21 22 22 22 24 26 28 28 28 28 27 27 25 20 20 20 18 15 13 13 14 14 14 13 11 11 12 13 18 27 35 39 44 46 44 42 42
19 16 12 9 7 5 5 6 9 8 7 10 11 12 12 11 11 11 10 10 9 8 8 9 9 9 10 12 14 15 15 14 14 15 15 14 15 18 18 19 20 22 24 25 26 25 22 21 20 20 21 22 24 27 29 30 30 27 26 26 24 21 21 22 19 16 13 13 14 14 15 16 12 10 13 15 18 24 30 36 42 45 46 45 43
20 17 13 10 7 6 5 5 7 6 6 9 11 11 11 10 10 10 9 9 9 9 9 9 10 10 11 13 14 15 15 14 13 13 15 15 16 17 18 19 19 20 22 24 26 27 25 21 19 19 20 22 25 26 28 31 32 29 26 26 23 21 20 20 20 19 16 15 15 16 16 15 15 14 14 17 22 25 27 32 36 39 44 45 43
20 18 14 10 8 6 5 4 5 5 5 8 10 10 10 10 9 9 8 9 9 9 9 9 10 10 12 14 15 16 15 15 15 14 15 16 17 17 18 19 18 19 21 23 25 27 26 20 18 18 19 22 24 26 28 31 32 30 27 25 24 22 19 18 18 18 16 15 16 16 16 14 14 15 16 18 23 27 27 30 32 34 38 41 43
21 18 14 12 10 7 5 3 4 4 5 7 9 9 9 9 9 8 7 8 9 9 9 9 10 11 12 13 15 15 15 16 16 16 17 17 17 17 18 18 17 19 21 23 25 27 25 20 17 18 18 21 24 25 28 31 31 30 29 26 25 24 22 20 19 18 15 14 14 14 15 15 13 14 17 19 22 26 27 29 31 31 33 36 40
23 20 17 16 13 10 7 2 3 3 3 5 8 9 8 8 8 7 7 7 8 9 9 9 10 11 12 13 14 14 14 16 17 16 16 17 17 16 17 17 17 18 20 22 24 25 25 20 17 17 17 20 23 25 26 29 30 29 30 28 27 26 25 24 23 22 20 18 16 15 16 16 14 14 16 18 19 21 25 28 29 30 33 32 32
26 23 21 18 15 12 8 3 2 2 2 4 7 8 7 7 7 6 6 7 8 8 9 9 10 11 12 12 12 13 13 14 15 14 15 16 16 16 17 18 17 18 20 22 23 24 24 21 18 16 17 19 23 24 25 28 29 29 30 29 29 29 28 27 25 24 23 21 19 19 18 17 15 14 15 16 17 19 24 29 30 31 35 33 29
27 25 23 20 16 13 8 3 1 1 2 4 7 7 6 6 6 6 5 7 7 8 9 9 10 11 12 11 11 12 12 13 13 13 15 16 17 16 17 17 16 17 20 21 22 23 23 21 18 15 15 18 22 24 25 27 29 30 31 30 30 30 28 27 26 25 24 23 21 21 20 18 16 13 14 16 17 19 25 29 31 34 36 35 33
28 26 23 20 17 13 9 4 1 0 1 3 6 5 5 5 6 5 5 6 7 8 9 9 10 11 12 11 11 12 13 12 12 13 15 17 17 16 16 14 13 15 18 20 21 23 22 20 18 14 15 18 22 24 25 27 30 32 33 33 32 32 31 30 29 27 26 26 24 22 21 21 18 14 13 16 17 19 23 26 30 35 34 31 30
30 27 24 21 17 14 9 6 3 1 1 3 4 4 4 4 5 6 5 7 8 8 9 10 10 11 11 11 10 11 13 13 13 14 16 18 16 16 14 12 12 13 16 19 21 22 21 20 17 14 15 18 21 24 25 28 32 34 36 37 37 36 36 35 34 32 31 29 28 26 24 23 21 17 15 16 19 23 26 26 28 32 31 27 24
31 29 26 22 18 14 10 6 5 3 0 2 2 2 3 4 5 6 6 8 8 8 9 9 10 11 11 11 10 11 13 13 14 15 16 16 15 15 13 11 11 13 15 18 20 20 20 19 17 15 15 17 21 23 24 27 31 34 34 36 37 37 38 37 37 36 34 32 32 31 29 28 27 25 22 21 23 28 31 30 28 27 26 23 19
31 29 25 21 18 15 11 8 6 3 1 2 1 2 3 4 5 6 7 8 8 8 8 9 10 10 10 11 10 11 12 13 15 15 15 14 14 13 12 12 12 14 15 17 18 19 19 18 16 15 16 17 20 23 24 26 29 31 31 32 33 34 35 35 35 35 34 33 33 33 32 32 32 32 32 30 29 29 29 29 28 26 23 21 16
31 29 25 22 19 16 12 10 8 4 1 1 2 3 4 4 4 5 6 7 7 7 8 8 9 10 10 10 10 11 12 13 15 15 14 13 14 12 11 12 13 14 15 16 17 18 18 18 16 16 16 16 19 22 23 24 26 28 28 28 29 29 30 31 31 31 30 29 30 30 29 29 28 28 28 27 25 24 23 23 23 22 22 21 19
32 30 27 24 20 16 13 10 8 5 1 1 4 4 5 4 3 3 5 6 6 7 8 8 9 10 9 9 10 11 12 13 15 14 13 14 13 11 11 12 13 14 15 16 16 17 17 17 16 16 16 15 17 20 21 22 23 24 25 25 25 27 28 28 28 27 26 24 24 24 24 22 21 21 21 20 19 19 18 18 18 17 18 18 17
32 31 28 24 21 17 13 10 8 5 3 3 4 4 4 4 3 4 5 6 6 7 7 8 9 9 9 9 10 11 11 13 14 12 12 13 12 10 10 12 13 13 14 15 15 16 16 15 15 16 16 15 16 18 19 19 20 22 23 23 24 25 26 26 26 27 26 24 21 19 18 16 15 15 15 14 14 13 13 13 13 14 14 15 14
32 30 28 25 22 18 15 12 10 7 4 3 4 4 3 3 3 3 4 5 6 6 6 7 8 8 9 9 10 11 11 13 13 11 10 11 10 9 9 10 12 13 13 15 15 14 15 14 14 15 15 14 15 16 17 17 19 20 21 22 22 23 24 25 26 27 27 26 23 19 16 14 13 13 14 14 14 13 13 13 13 13 13 13 13
31 30 28 25 22 18 16 14 10 7 5 4 4 3 2 2 2 2 3 5 5 4 5 7 7 7 8 9 9 10 11 12 13 12 11 11 9 8 7 9 11 12 12 14 14 13 13 13 13 14 14 14 14 14 15 17 18 19 20 21 21 22 23 24 24 25 26 26 26 25 22 19 18 18 18 18 17 16 16 16 16 14 13 13 13
31 30 28 25 22 18 17 14 11 8 6 6 5 4 2 0 2 3 3 5 4 3 4 5 6 6 7 8 9 10 11 12 13 12 11 11 9 7 6 8 9 10 12 13 13 13 13 12 12 12 13 14 14 14 14 16 17 17 18 19 19 20 21 22 23 23 24 26 26 26 24 22 21 21 20 19 18 17 17 16 16 15 14 14 14
32 31 28 26 23 20 18 15 12 10 8 8 7 5 3 3 4 3 3 4 2 3 3 4 5 5 6 7 8 10 11 12 13 13 10 10 8 6 6 7 9 10 11 12 12 13 13 12 12 11 11 12 13 13 13 14 15 14 15 16 17 18 19 20 20 22 23 25 25 26 24 23 22 22 21 20 18 17 15 15 15 15 14 14 14
33 32 30 27 24 21 18 16 13 11 11 11 10 8 6 6 6 4 3 2 1 2 2 3 3 4 5 6 7 9 11 12 12 13 10 8 8 5 4 6 8 9 10 12 12 12 13 13 12 11 10 10 11 11 11 12 12 12 12 13 14 15 16 17 18 20 22 23 25 26 25 25 26 26 25 23 21 19 16 15 15 15 13 12 13
34 33 31 28 25 22 19 16 14 12 13 13 12 9 7 6 5 4 3 2 1 1 1 1 2 3 4 5 7 8 10 11 12 13 12 8 7 5 2 5 7 9 10 11 12 13 14 14 13 12 11 10 10 10 10 10 10 10 11 12 13 13 14 15 16 18 20 22 24 25 25 26 27 27 27 26 26 24 22 21 19 17 14 12 12
34 33 32 29 26 23 20 18 16 15 15 15 13 9 6 4 4 5 4 3 3 2 1 1 1 2 3 4 6 7 8 10 11 12 13 11 7 5 1 4 7 8 9 10 11 12 13 13 13 13 12 11 10 10 10 10 10 10 11 11 12 12 12 13 14 16 18 20 22 23 24 24 25 25 25 25 26 26 26 26 25 23 19 15 13
35 34 32 29 26 24 21 20 19 18 18 17 14 11 7 4 4 5 5 4 4 4 2 2 2 2 3 4 5 6 7 8 9 11 12 13 10 6 4 6 9 9 9 9 10 10 11 12 12 12 12 12 12 13 13 13 12 12 11 11 11 11 11 11 12 14 16 18 19 20 21 22 22 22 22 22 23 23 24 26 27 27 26 22 18
35 34 32 30 26 24 22 22 21 21 21 19 16 12 8 4 4 5 5 5 5 4 3 3 2 2 2 3 4 5 6 6 8 10 11 12 13 10 9 10 11 10 9 8 8 9 10 10 10 11 11 12 14 15 15 14 14 13 12 11 10 10 10 10 10 11 13 14 15 16 17 17 17 18 20 21 21 20 20 22 25 27 28 28 25
35 34 32 29 26 24 24 24 24 23 22 20 16 13 9 5 5 5 6 6 6 5 4 3 2 2 2 2 3 4 5 5 7 8 10 11 12 12 11 11 11 11 10 9 7 7 9 10 9 9 10 11 13 14 14 13 13 14 13 11 10 10 10 10 10 10 10 11 11 12 13 14 15 16 17 18 19 17 17 18 21 23 26 28 27
35 34 32 30 28 26 26 26 26 25 24 21 18 14 10 7 5 6 7 6 6 5 5 4 3 3 2 1 2 3 4 4 5 7 9 10 11 11 12 11 11 11 11 10 8 8 8 9 9 8 9 10 11 12 12 12 12 12 12 11 10 9 9 9 9 9 9 9 9 10 11 13 15 15 15 16 16 16 15 16 18 20 22 25 25
35 35 33 31 29 28 27 27 27 26 25 22 18 14 11 8 6 6 7 7 7 6 5 4 3 3 2 1 1 2 3 3 4 7 8 9 9 10 11 11 11 11 10 10 10 9 8 8 8 8 9 9 10 10 11 12 12 11 11 11 10 9 8 8 8 8 8 8 8 9 9 12 14 15 15 15 14 13 13 14 16 17 19 21 21
36 35 34 32 30 29 28 28 28 27 25 22 18 14 11 8 6 6 8 8 8 8 6 4 3 3 2 2 1 1 2 3 4 6 7 8 9 10 10 11 10 10 10 11 11 11 10 9 8 7 7 8 8 9 9 11 12 11 10 11 10 10 9 8 7 7 7 8 9 9 10 11 12 14 15 14 11 10 11 13 15 16 17 18 18
36 35 34 33 32 30 30 31 30 28 25 22 19 16 13 10 8 8 9 9 9 9 8 5 4 4 3 2 2 2 1 2 4 5 6 8 9 9 9 9 9 10 10 11 11 11 11 11 10 8 7 7 7 6 7 10 11 10 9 10 10 10 10 9 9 8 8 9 10 10 10 11 11 12 13 12 10 9 10 12 15 16 16 16 16
35 35 34 34 33 31 31 32 32 29 26 23 20 18 16 12 9 9 10 9 10 10 8 6 5 4 4 3 2 2 2 3 4 4 5 7 8 8 9 8 8 9 10 10 11 11 11 11 11 10 8 7 7 5 6 9 10 9 8 8 9 10 11 11 11 10 10 10 10 10 10 10 10 11 10 9 8 7 9 11 14 15 15 14 14
33 33 33 33 33 31 31 32 32 30 27 25 22 19 16 13 12 11 11 11 11 11 9 7 6 5 4 3 3 3 3 3 4 3 3 6 7 7 8 8 7 8 9 9 10 10 11 10 11 11 10 9 8 7 6 7 8 7 6 7 8 9 10 12 13 12 12 11 11 11 10 9 9 9 8 7 6 6 8 11 13 15 15 14 12
32 33 34 34 33 32 32 32 32 30 28 25 22 19 17 14 13 13 12 12 12 11 10 8 6 5 5 4 3 4 3 3 4 3 2 4 5 6 6 6 6 6 8 9 9 9 10 10 10 11 11 10 9 8 7 7 7 6 5 6 7 8 10 11 13 13 12 12 12 12 12 11 10 9 6 5 5 5 6 8 10 13 15 14 13
32 33 34 35 35 34 33 33 32 30 28 25 22 19 17 15 14 14 14 14 13 12 10 8 7 6 5 4 4 4 4 4 4 3 3 4 4 4 5 5 5 6 7 8 8 8 8 9 10 10 10 10 10 10 9 8 7 6 5 5 6 6 8 10 11 11 11 12 12 13 13 13 12 11 9 8 7 6 6 6 8 11 13 14 13
31 33 34 35 36 36 35 35 33 31 28 25 22 20 17 15 14 14 15 14 13 12 11 9 7 6 5 5 5 5 5 4 4 3 4 4 3 3 3 4 4 6 7 7 8 7 7 8 9 9 9 10 11 11 10 9 7 6 5 5 4 5 7 8 8 8 8 9 10 11 12 13 12 12 12 11 11 10 9 8 8 10 12 12 11
26 31 34 36 37 37 36 35 33 31 27 25 23 20 17 15 15 15 15 14 13 12 11 10 8 6 6 6 6 6 5 5 5 5 6 6 6 5 5 5 5 6 7 7 8 7 7 7 8 8 8 10 11 12 12 10 9 8 7 6 6 6 8 8 7 8 8 9 10 11 12 11 10 10 11 11 12 11 11 10 10 10 9 9 9
24 30 34 36 37 37 36 34 32 30 27 24 22 20 17 15 15 15 14 14 13 12 11 10 8 7 7 7 7 7 6 6 6 6 7 7 7 6 6 6 6 7 7 7 7 7 7 7 7 7 7 9 10 11 11 11 10 10 9 8 8 9 9 8 8 9 11 11 12 12 12 11 9 9 9 10 10 9 10 11 10 8 7 7 7
22 28 33 36 37 38 37 34 32 29 26 23 22 19 16 15 14 14 14 14 13 12 10 10 9 8 8 8 8 8 8 8 7 7 7 6 6 5 4 4 5 6 6 6 7 7 7 7 7 6 7 8 8 9 9 9 9 9 9 9 9 9 9 8 9 10 11 11 12 12 12 11 9 8 8 7 7 7 8 9 8 7 6 7 7
20 26 32 35 36 37 36 33 31 28 25 23 21 17 15 14 15 14 14 14 13 11 10 10 9 9 9 9 9 9 9 9 9 8 7 6 6 5 3 2 3 5 6 6 6 6 6 6 7 7 7 7 7 8 8 8 8 7 7 8 8 8 9 8 9 9 10 10 10 10 10 10 9 8 7 6 5 6 7 7 6 6 6 6 7
21 27 32 34 35 35 34 33 30 27 24 22 19 16 14 14 14 15 15 14 13 12 11 10 11 11 11 11 11 11 11 11 11 10 8 6 6 5 4 2 1 4 6 6 6 6 6 6 7 8 8 7 7 7 7 7 7 6 6 7 7 8 8 8 8 9 9 9 9 9 8 8 8 7 6 4 5 6 6 5 5 5 5 6 7
25 29 33 34 34 33 33 32 30 27 24 22 18 14 12 12 13 14 14 14 12 12 11 11 12 13 13 13 14 14 14 13 12 10 8 7 5 4 3 2 1 2 4 6 6 5 6 7 7 8 8 8 7 7 6 6 5 5 5 6 7 8 8 8 8 8 8 8 7 7 6 6 7 6 6 5 5 5 5 5 5 6 6 7 8
25 29 31 33 34 33 32 31 29 27 24 20 17 14 12 12 12 13 14 14 13 13 12 13 14 15 15 15 16 15 14 13 12 10 9 7 6 4 3 3 2 1 3 4 4 5 6 6 7 8 8 8 8 7 7 6 5 4 5 6 7 7 7 7 8 7 7 6 6 6 6 6 6 6 6 6 5 4 4 5 6 7 8 9 9
27 29 31 32 32 32 31 30 28 26 23 19 16 15 14 13 12 13 14 15 14 14 14 14 16 16 17 17 16 15 14 12 11 10 9 8 7 5 4 3 2 1 3 4 3 4 5 6 7 7 7 7 8 8 8 7 6 5 6 6 7 7 7 7 8 8 7 6 5 5 5 5 5 6 6 7 7 6 6 6 7 7 9 9 9
29 29 29 30 29 29 29 29 27 25 22 19 16 15 15 14 13 14 15 15 16 15 15 16 18 18 18 18 17 15 14 12 10 10 10 9 8 6 5 5 3 2 4 5 5 5 5 6 6 7 7 7 8 9 9 9 8 7 7 7 8 8 8 9 9 7 6 4 4 4 4 5 5 6 7 9 10 9 8 7 6 6 7 8 8
29 29 30 29 28 27 27 27 26 24 22 19 17 16 15 14 14 15 15 16 17 17 18 19 20 20 20 19 17 16 15 13 11 11 11 11 10 9 8 7 5 4 5 7 6 6 6 6 5 6 7 7 8 9 9 9 9 9 8 8 9 9 9 9 8 6 4 4 5 6 8 9 9 9 9 10 11 11 11 10 9 7 6 6 7
31 31 31 30 29 27 26 27 26 25 23 21 19 17 16 15 14 15 16 16 17 18 20 21 21 21 20 19 18 17 16 14 13 12 11 10 10 10 10 9 7 6 7 7 7 7 8 7 6 6 7 8 8 9 9 8 8 8 8 8 9 9 8 9 7 5 4 7 8 9 11 12 11 11 12 12 12 12 12 12 11 10 8 7 7
Wind_Direction
191 206 239 289 311 345 1 4 5 4 13 20 21 22 19 22 27 30 28 23 27 38 48 58 66 70 57 36 22 16 17 13 11 12 14 14 5 12 38 46 34 31 31 31 34 34 30 26 23 21 20 20 20 19 16 11 9 10 9 10 12 13 15 8 1 1 1 6 26 45 62 62 43 31 25 19 11 3 356 352 353 358 357 332 309
192 206 230 267 292 342 358 360 1 1 11 23 24 21 14 19 29 29 25 24 26 30 34 45 53 58 52 34 23 17 18 15 10 11 10 7 10 29 49 47 37 36 35 35 35 34 32 27 21 19 19 20 20 19 16 11 8 11 11 11 12 14 19 15 5 3 3 3 16 36 53 55 45 40 31 24 21 16 12 13 22 43 51 20 355
197 212 229 246 280 338 351 354 359 359 8 26 26 21 16 18 27 27 24 25 26 26 34 48 53 56 52 38 27 23 23 16 9 11 14 19 33 50 57 50 42 38 35 34 34 35 33 25 18 18 18 19 20 19 17 13 11 12 13 12 11 12 21 21 10 6 2 2 16 26 31 32 32 37 35 31 34 34 29 40 62 72 70 50 45
199 212 221 216 245 318 341 350 355 355 6 28 26 21 18 16 23 25 23 25 25 29 42 55 58 56 54 44 33 31 29 21 15 20 28 40 54 60 58 52 43 36 33 33 34 34 32 23 17 17 19 20 22 21 17 15 13 13 14 15 12 10 16 20 16 10 2 11 25 23 24 25 19 24 32 35 42 41 34 45 65 71 75 79 78
200 208 210 203 223 288 328 344 350 351 4 27 24 20 17 13 20 23 22 25 26 34 47 60 66 57 50 42 36 35 30 25 23 25 34 48 57 59 59 52 42 35 33 31 31 32 29 24 18 19 21 24 26 23 19 15 14 15 16 19 19 14 15 19 20 14 10 31 42 31 24 20 10 16 26 36 46 45 38 48 62 65 74 79 77
204 205 196 200 232 274 316 335 345 350 7 24 19 17 16 12 18 22 22 27 27 31 41 47 52 46 36 30 29 29 27 28 27 26 36 50 56 61 61 52 43 39 35 32 29 29 29 26 21 22 26 29 29 24 20 15 17 23 23 24 25 20 18 20 21 20 27 54 58 49 36 17 12 17 23 35 49 50 43 48 59 66 78 82 78
200 198 193 210 241 271 300 326 341 348 11 22 15 14 15 12 16 21 22 29 29 26 31 35 38 36 31 28 27 29 33 36 32 30 39 49 59 66 62 51 44 40 36 33 29 27 29 28 24 27 31 31 30 26 22 20 23 29 30 31 31 26 22 23 25 32 48 65 66 58 49 43 36 33 44 48 53 51 45 48 57 66 78 80 78
195 195 200 219 239 262 281 318 342 350 10 16 10 11 14 12 15 19 23 30 30 25 24 27 30 31 30 30 31 35 41 43 38 35 37 47 66 71 61 50 44 39 35 33 30 27 27 28 28 32 34 31 30 29 27 28 30 32 32 34 36 34 31 29 34 46 63 74 71 60 49 49 55 59 68 71 68 57 45 46 55 64 71 72 74
199 202 206 216 230 247 267 313 343 354 11 9 4 8 12 13 15 17 23 29 32 30 25 24 28 29 31 35 39 43 45 44 40 34 33 50 73 73 59 51 43 38 35 33 31 28 27 28 31 35 35 32 32 32 33 34 33 33 32 32 35 41 42 40 43 52 62 65 58 52 48 57 72 79 83 82 77 68 50 45 52 60 65 66 69
200 206 206 212 220 230 256 310 343 358 12 2 358 3 9 14 16 16 22 29 34 33 28 27 29 30 34 38 42 45 42 37 35 31 34 56 77 71 57 51 42 36 35 34 32 29 28 29 34 38 36 34 34 33 36 36 34 34 34 33 35 41 49 51 51 53 53 49 42 40 42 55 75 82 84 82 79 76 65 55 55 58 62 64 68
198 202 202 205 207 215 238 293 347 8 8 355 356 1 7 15 17 16 23 31 35 35 31 29 31 34 37 40 43 44 38 31 33 35 40 59 76 69 58 52 41 36 36 35 33 29 28 31 38 42 38 36 35 35 37 37 34 34 37 37 38 40 45 50 52 50 49 48 43 41 44 53 69 82 89 88 81 80 76 68 63 64 67 68 71
196 199 199 199 200 205 214 253 355 17 1 347 355 358 5 17 19 18 24 33 35 35 33 28 32 37 39 42 44 42 36 31 36 41 41 55 73 68 57 50 39 36 37 36 34 29 27 32 40 44 41 38 37 35 39 40 37 37 40 42 42 43 44 46 48 46 47 50 50 53 56 61 73 84 89 91 87 85 84 78 72 71 73 73 74
197 199 199 199 201 203 204 222 358 19 359 346 349 352 4 17 22 21 25 35 35 34 32 27 30 35 37 42 43 39 36 33 38 41 36 51 72 66 53 45 34 34 38 36 33 27 25 31 38 44 43 40 38 37 41 43 41 41 44 47 49 48 48 50 52 52 52 54 56 60 61 63 76 81 81 89 96 94 88 85 81 77 76 77 77
197 199 200 201 203 200 201 220 298 14 6 343 340 350 6 13 19 22 26 37 35 31 30 26 28 32 34 38 39 38 36 35 39 36 36 59 75 65 54 45 32 32 36 33 29 24 26 32 38 47 50 41 39 41 45 47 45 44 47 52 55 55 53 54 57 59 59 58 58 62 61 60 68 75 80 92 100 98 92 88 87 84 82 80 80
197 199 201 203 201 197 204 223 230 47 6 335 336 357 13 9 13 13 19 36 36 28 26 25 26 28 31 34 35 36 36 39 39 34 50 73 78 66 57 47 33 32 33 31 27 25 29 34 39 54 57 45 43 47 51 52 51 52 55 59 60 59 58 56 57 60 61 60 59 60 60 59 60 68 85 97 99 97 92 88 90 92 90 87 84
197 200 201 200 197 197 208 214 189 155 343 334 343 17 29 19 19 17 20 36 35 25 21 22 24 26 30 33 34 35 37 42 39 42 67 83 77 66 58 45 35 34 34 32 27 27 32 37 45 63 63 51 49 53 57 60 60 62 64 66 66 64 62 60 61 64 66 66 65 63 61 61 63 70 86 94 88 85 85 84 87 92 93 93 90
198 201 200 197 194 197 206 200 176 163 277 335 359 52 54 44 40 34 34 38 34 23 19 21 23 27 29 32 36 37 39 42 37 48 77 86 77 69 57 43 38 35 35 33 28 29 35 40 51 69 70 59 57 60 64 67 67 68 68 67 67 67 66 66 66 69 71 72 73 72 71 73 76 78 84 90 88 87 86 82 80 81 85 88 86
198 199 198 194 195 198 199 189 175 169 303 334 36 94 80 72 64 51 42 40 32 21 19 19 23 28 29 33 38 39 42 40 36 53 82 88 77 69 52 42 40 36 36 35 30 32 38 42 53 71 76 68 64 67 71 71 71 71 69 67 66 64 64 64 65 67 70 73 76 79 80 82 84 84 86 88 88 86 83 77 73 71 70 71 71
194 194 193 194 197 198 194 187 180 174 306 317 150 123 100 95 82 61 47 42 33 19 16 18 23 28 29 33 40 42 43 39 42 64 86 83 72 62 48 44 42 40 40 38 33 35 41 45 54 71 80 76 71 74 76 74 71 70 68 64 61 58 57 57 57 60 64 68 73 77 81 83 83 82 83 83 79 75 71 67 66 64 62 61 61
192 192 194 195 195 195 194 189 181 171 172 166 150 132 114 107 93 72 61 48 34 21 15 17 22 27 30 36 42 44 42 39 51 73 84 79 72 59 47 47 46 45 43 39 37 39 45 49 57 71 82 82 79 80 80 76 72 69 65 61 58 55 53 52 51 53 56 61 67 72 77 80 78 72 71 69 64 59 53 48 46 46 46 48 50
192 193 194 193 191 192 192 187 181 173 176 163 140 130 112 93 73 73 72 51 29 19 14 17 22 26 31 38 43 45 41 40 54 76 83 81 78 62 49 50 49 47 46 42 41 43 48 53 59 69 82 88 86 84 83 78 72 69 65 61 57 56 55 52 50 49 49 51 56 65 70 73 69 61 55 51 45 38 34 34 34 35 34 33 34
192 193 191 190 190 191 190 188 188 185 189 166 129 125 107 74 53 51 53 34 18 11 9 17 22 24 31 40 43 44 40 38 50 68 83 88 83 63 53 52 49 49 48 46 45 46 51 57 63 70 78 89 92 89 85 78 73 70 67 63 59 57 56 56 55 54 51 49 51 56 60 61 56 47 40 39 36 33 36 42 47 46 42 38 38
193 191 189 190 191 192 191 190 188 188 193 170 139 141 120 66 16 350 7 8 5 4 8 16 21 24 32 40 43 43 40 39 45 60 84 98 88 63 55 54 52 53 53 49 48 50 54 61 68 71 75 84 91 90 85 78 74 70 66 62 58 55 56 58 60 60 57 53 53 54 56 57 56 54 51 50 50 48 50 54 59 59 55 53 56
190 190 189 191 192 191 190 188 187 192 194 176 166 176 170 188 287 295 328 341 350 11 15 16 20 27 34 39 44 44 41 40 44 58 86 107 95 66 55 56 58 60 59 54 52 53 57 64 72 73 75 81 86 87 84 80 75 70 66 62 57 54 54 58 63 64 60 57 56 55 56 57 59 59 58 56 55 53 54 58 62 59 55 58 66
188 188 189 190 191 190 189 189 191 196 194 185 186 193 202 239 261 267 285 306 342 25 25 20 23 31 35 39 44 45 43 42 44 55 84 113 106 74 53 54 63 69 65 60 58 57 56 61 69 74 75 76 80 83 83 80 74 66 62 59 55 53 54 58 65 67 63 61 61 60 59 59 60 59 58 56 54 52 51 52 55 55 56 62 70
187 188 190 191 190 189 190 191 194 198 197 193 192 197 217 239 247 249 256 268 356 38 32 28 31 37 38 39 43 46 46 45 46 52 70 110 122 97 50 45 62 75 74 66 62 60 57 56 61 68 70 70 74 78 79 77 72 62 55 51 48 48 51 58 67 70 67 66 67 67 66 66 66 65 63 61 59 58 55 53 54 58 64 73 78
189 189 189 190 189 189 191 193 196 199 199 199 200 210 228 241 240 234 229 220 189 85 56 47 45 48 47 43 43 45 47 48 49 52 59 86 125 136 60 28 53 76 79 71 66 64 60 58 60 66 67 66 67 70 70 68 64 57 50 45 44 45 48 56 68 74 72 71 71 71 71 71 71 70 69 67 64 62 61 59 59 60 64 72 77
188 188 189 189 188 189 191 195 197 198 200 202 207 218 230 240 239 223 201 191 184 173 162 121 83 61 56 51 45 45 47 49 53 56 57 65 93 132 113 28 51 75 80 73 70 68 64 62 63 65 68 68 67 63 58 53 49 46 42 38 40 44 50 59 71 76 76 75 74 73 73 73 73 71 69 68 65 63 62 61 59 58 60 65 70
187 189 190 190 189 190 192 196 197 199 202 204 209 216 219 231 237 215 194 184 178 178 183 160 123 78 62 55 46 45 46 49 56 58 57 58 66 80 73 51 62 75 78 75 74 72 69 66 64 63 63 63 60 56 51 46 42 40 39 37 39 46 55 65 76 80 79 77 76 73 72 73 71 68 65 63 60 58 58 60 58 56 57 60 66
188 190 191 191 192 193 195 197 198 201 204 207 211 215 217 228 230 209 193 181 178 181 180 166 145 104 77 55 45 47 45 49 58 60 59 58 59 64 65 65 71 76 75 76 81 82 77 70 65 62 59 56 54 52 48 43 41 43 42 41 44 54 64 73 83 86 82 78 74 68 67 68 67 64 63 61 57 52 51 56 58 57 56 58 63
190 191 192 192 193 195 198 199 201 204 207 210 215 216 215 219 219 209 196 185 183 180 172 168 149 119 102 55 45 51 48 50 61 65 63 60 61 63 66 69 74 74 70 71 80 88 83 73 66 62 58 56 53 49 43 36 35 41 45 46 49 59 71 81 90 91 84 78 71 62 58 58 58 61 64 64 60 55 50 51 56 58 57 58 61
191 193 193 193 195 198 201 202 204 206 209 212 215 215 214 214 215 214 202 189 185 181 177 176 152 130 134 94 56 56 57 58 67 73 70 64 63 65 66 68 71 71 69 69 74 83 83 76 69 62 58 56 51 45 37 27 24 31 40 46 52 62 75 85 91 90 83 75 63 54 53 54 50 52 64 71 69 63 55 51 55 60 60 59 58
195 196 196 197 200 203 204 205 207 209 211 214 218 219 217 213 217 220 203 188 190 190 189 189 159 141 156 137 88 74 75 73 78 81 77 70 66 64 63 63 64 65 67 68 71 77 82 81 74 65 61 57 50 41 31 23 19 22 29 38 48 60 74 84 88 86 79 66 52 51 61 63 55 52 62 77 78 68 58 53 55 60 63 62 59
199 200 201 202 203 204 206 208 209 210 211 214 216 218 215 211 216 213 193 188 194 196 194 194 174 166 180 163 129 121 106 93 92 89 83 75 69 64 62 59 58 61 63 65 67 70 76 79 74 67 64 61 54 40 27 22 20 19 24 31 40 53 63 71 76 74 70 61 53 55 64 68 65 61 65 74 78 68 57 53 55 59 61 61 58
202 202 203 204 204 204 205 206 207 208 209 209 210 211 210 211 212 203 191 190 195 197 198 196 183 181 189 183 165 164 146 115 108 100 88 79 69 64 63 60 59 59 59 62 64 64 68 71 71 70 67 68 65 46 26 24 21 22 31 34 38 49 55 59 63 63 63 64 61 61 64 66 69 68 66 69 72 64 53 48 52 59 59 57 56
208 207 207 208 207 206 206 206 205 206 207 208 209 210 210 210 206 199 196 196 196 199 201 195 186 189 196 196 185 180 172 143 131 114 93 82 70 62 60 56 56 58 58 60 63 64 65 67 68 68 65 69 75 59 32 26 21 24 40 44 44 52 56 58 61 60 62 66 65 65 66 68 72 70 63 60 58 48 40 40 46 53 54 53 57
217 216 214 212 210 207 206 206 204 204 207 208 208 210 211 209 204 200 201 201 199 201 202 195 191 197 202 199 190 190 191 169 155 138 97 85 74 62 55 49 50 54 56 57 60 63 66 67 68 68 64 64 70 65 48 34 29 36 51 53 54 57 58 59 60 59 57 59 61 61 62 65 71 69 60 51 39 22 26 34 39 43 45 49 58
219 214 211 210 208 205 206 207 204 203 206 208 209 210 210 208 207 204 204 203 200 200 201 199 198 202 204 201 191 194 200 191 182 171 117 98 85 66 55 47 44 48 52 54 54 59 65 67 68 68 66 63 63 64 57 48 50 59 62 61 63 65 63 63 62 59 56 55 56 56 55 54 58 60 54 42 24 6 13 28 34 35 39 46 57
218 214 212 210 206 203 204 205 205 203 204 207 210 210 209 210 210 209 206 203 200 200 201 201 201 202 202 200 193 195 201 200 198 182 135 113 92 66 53 47 47 49 51 53 54 57 63 68 69 69 69 68 65 65 64 62 67 72 66 67 71 69 67 68 65 61 58 56 57 55 52 49 48 49 46 42 35 22 17 31 34 30 36 48 56
216 216 215 211 206 203 203 204 205 205 204 206 208 208 209 212 214 211 207 202 199 200 200 200 203 203 200 198 195 197 201 200 195 174 137 120 102 79 66 59 59 57 55 57 62 62 64 71 75 73 72 72 69 68 69 70 71 71 67 71 69 61 64 65 62 58 55 55 55 54 52 46 41 38 36 35 35 31 30 38 33 27 41 58 63
218 216 213 209 205 204 204 204 205 206 205 205 207 207 207 213 216 212 206 200 198 200 199 201 205 200 193 195 195 197 201 198 189 168 141 126 115 101 84 68 60 59 60 63 68 68 67 74 80 81 78 77 75 73 73 74 72 69 67 64 58 56 60 59 54 51 49 48 47 46 45 41 33 31 29 27 30 31 29 33 33 37 56 72 71
215 212 209 205 201 200 201 203 203 205 206 206 207 207 208 214 216 209 202 199 199 201 201 201 199 191 188 193 194 196 200 197 185 169 149 133 116 97 77 58 51 56 63 65 65 67 70 75 84 87 86 85 83 79 76 74 69 65 59 54 51 54 56 51 48 48 47 45 42 40 38 33 28 28 28 26 29 31 30 35 44 55 72 81 78
209 206 205 203 199 197 199 201 202 203 206 207 206 207 210 215 212 204 200 202 202 202 202 197 192 189 191 194 194 197 201 197 185 174 162 145 126 108 84 54 42 49 63 69 69 69 71 77 86 92 93 92 90 84 78 71 65 58 50 44 43 46 46 40 38 44 45 41 39 37 33 28 26 27 28 27 28 33 41 52 61 65 75 86 87
206 202 201 201 199 197 197 199 200 201 204 207 208 210 212 211 208 202 202 203 202 200 198 194 191 194 195 196 196 197 200 196 187 182 178 165 149 142 134 88 39 41 52 63 72 75 78 82 88 93 96 97 95 88 79 70 62 54 42 35 33 34 34 31 32 41 43 38 36 36 30 26 25 27 28 30 36 45 57 68 70 67 76 88 87
203 199 198 199 200 198 196 197 198 200 204 207 209 212 213 210 207 207 207 204 201 199 198 195 195 199 200 197 195 195 196 194 189 186 183 174 165 165 170 173 43 36 43 53 68 78 83 85 88 92 95 97 96 91 82 71 63 54 40 31 26 28 31 31 32 37 39 34 32 31 27 25 26 29 33 43 59 67 72 77 78 76 76 78 80
198 195 195 197 198 198 197 196 196 199 204 206 207 212 216 215 212 211 210 207 205 204 202 200 201 203 201 198 197 199 199 197 195 191 184 177 177 186 199 218 265 21 41 53 66 80 85 87 91 92 94 97 100 97 90 79 67 57 45 31 20 22 28 30 30 32 31 28 26 25 24 23 24 31 40 50 61 73 81 86 87 85 78 76 79
198 196 195 195 196 197 197 197 196 197 200 203 203 206 215 220 219 216 213 211 211 212 208 205 204 203 200 200 204 207 207 205 203 198 190 185 187 195 213 230 247 337 48 63 74 83 86 88 91 94 97 102 103 99 94 88 76 56 42 29 18 20 26 27 29 30 26 23 23 23 25 27 29 37 46 52 63 81 88 83 80 78 78 75 74
197 196 196 197 197 198 199 198 197 195 195 196 199 203 212 218 220 219 217 215 215 217 214 210 206 203 203 205 209 212 214 213 208 199 194 196 197 195 198 206 210 150 97 96 95 94 92 90 90 93 98 103 102 98 92 85 76 59 42 30 24 28 31 30 32 31 24 21 25 27 33 43 50 56 60 62 65 68 67 69 72 74 77 78 78
197 198 199 200 200 200 201 200 197 193 190 190 194 203 212 217 218 220 220 219 219 219 216 211 207 206 207 209 210 213 217 216 207 197 196 200 200 194 186 181 175 146 121 117 116 108 102 99 98 102 107 108 105 100 89 78 69 58 47 37 35 36 35 35 36 33 25 28 45 57 63 67 67 67 67 64 62 59 59 64 73 84 92 96 96
200 200 201 202 202 203 202 200 196 192 187 186 191 201 209 215 219 221 222 222 221 219 214 210 209 209 210 210 211 213 215 213 208 203 203 203 198 188 178 170 163 150 128 120 122 120 110 104 107 115 118 112 101 91 81 71 61 53 45 39 37 37 37 38 39 35 33 52 67 69 67 65 62 63 66 65 63 61 61 62 67 78 93 94 87
201 200 201 201 202 204 204 199 195 191 187 186 191 198 203 209 216 221 222 223 223 219 214 211 211 212 212 212 213 214 214 212 209 208 209 208 202 189 176 165 158 149 131 120 122 121 114 112 116 119 115 106 94 85 77 69 61 54 47 44 43 41 40 42 37 23 32 51 57 59 61 61 58 57 60 61 61 61 60 60 61 65 71 73 73